TimeMST,TemperatureF,Dew PointF,Humidity,Sea Level PressureIn,VisibilityMPH,Wind Direction,Wind SpeedMPH,Gust SpeedMPH,PrecipitationIn,Events,Conditions,WindDirDegrees,DateUTC
12:53 AM,34.0,12.0,40,30.08,10.0,ENE,12.7,-,N/A,,Clear,60,2012-12-10 07:53:00
1:53 AM,32.0,9.0,38,30.09,10.0,ENE,10.4,-,N/A,,Clear,70,2012-12-10 08:53:00
2:53 AM,28.0,8.1,43,30.09,10.0,East,6.9,-,N/A,,Clear,100,2012-12-10 09:53:00
3:53 AM,26.1,7.0,44,30.11,10.0,East,6.9,-,N/A,,Clear,80,2012-12-10 10:53:00
4:53 AM,23.0,6.1,48,30.12,10.0,Calm,Calm,-,N/A,,Clear,0,2012-12-10 11:53:00
5:53 AM,24.1,6.1,46,30.14,10.0,ESE,4.6,-,N/A,,Clear,120,2012-12-10 12:53:00
6:53 AM,21.9,5.0,48,30.17,10.0,NE,4.6,-,N/A,,Clear,40,2012-12-10 13:53:00
7:53 AM,25.0,6.1,45,30.17,10.0,Calm,Calm,-,N/A,,Clear,0,2012-12-10 14:53:00
8:53 AM,30.9,9.0,40,30.18,10.0,Calm,Calm,-,N/A,,Clear,0,2012-12-10 15:53:00
9:53 AM,35.1,10.0,35,30.17,10.0,Calm,Calm,-,N/A,,Clear,0,2012-12-10 16:53:00
10:53 AM,37.9,8.1,29,30.14,10.0,SSE,3.5,-,N/A,,Clear,160,2012-12-10 17:53:00
11:53 AM,41.0,7.0,25,30.10,10.0,Variable,4.6,-,N/A,,Clear,0,2012-12-10 18:53:00
12:53 PM,45.0,8.1,22,30.03,10.0,WSW,6.9,-,N/A,,Clear,250,2012-12-10 19:53:00
1:53 PM,46.0,8.1,21,30.01,10.0,Variable,3.5,-,N/A,,Clear,0,2012-12-10 20:53:00
2:53 PM,48.0,8.1,20,29.99,10.0,WNW,3.5,-,N/A,,Clear,290,2012-12-10 21:53:00
3:53 PM,50.0,8.1,18,29.97,10.0,Variable,5.8,-,N/A,,Clear,0,2012-12-10 22:53:00
4:53 PM,48.9,10.0,21,29.99,10.0,WSW,5.8,-,N/A,,Clear,240,2012-12-10 23:53:00
5:53 PM,42.1,8.1,25,30.01,10.0,South,5.8,-,N/A,,Clear,190,2012-12-11 00:53:00
6:53 PM,37.0,6.1,28,30.04,10.0,South,3.5,-,N/A,,Clear,190,2012-12-11 01:53:00
7:53 PM,30.9,6.1,35,30.04,10.0,South,4.6,-,N/A,,Clear,190,2012-12-11 02:53:00
8:53 PM,33.1,3.9,29,30.03,10.0,West,9.2,-,N/A,,Clear,260,2012-12-11 03:53:00
9:53 PM,30.0,3.0,32,30.04,10.0,WNW,6.9,-,N/A,,Clear,290,2012-12-11 04:53:00
10:53 PM,27.0,1.9,34,30.05,10.0,NW,5.8,-,N/A,,Clear,310,2012-12-11 05:53:00
11:53 PM,25.0,1.9,37,30.05,10.0,Calm,Calm,-,N/A,,Clear,0,2012-12-11 06:53:00